Location: Lane
(33.5226°N, 79.8788°W)
Time: 19:42:24
(UTC+00:00)

Courier 1B Rocket - Pass Details

Date: 14 October 2022
Orbit: 920 x 1202 km, 28.3° (Epoch: 01 December)

Event Time Altitude Azimuth Distance (km) Brightness Sun altitude
Rises 01:47:53 0° 265° (W) 3,850 8.9 -37.9°
Reaches altitude 10° 01:51:49 10° 246° (WSW) 2,831 7.8 -38.7°
Enters shadow 01:54:37 16° 222° (SW) 2,402 7.2 -39.2°
Maximum altitude 01:55:49 16° 210° (SSW) 2,342 - -39.5°
Drops below altitude 10° 01:59:40 10° 173° (S) 2,712 - -40.2°
Sets 02:03:20 0° 153° (SSE) 3,611 - -41.0°
